Find NigeriaSat-X

NORAD ID: 37790 Int'l Des: 2011-044 Owner: NSRDA Country: NG operational
LEOCIRCULARRETROGRADESSO

实时位置

正在加载3D地球...

关于 NigeriaSat-X

正在加载描述...

即将过境

Passes for default location (London). Set your location on the main map for personalized predictions.

高度历史

Loading altitude history...

两行轨道根数

1 37790U 11044C 26106.21595329 .00000198 00000-0 49420-4 0 9998
2 37790 97.8523 93.5499 0012600 163.7688 196.3920 14.60820584781126
Epoch: Apr 16, 2026 • Age: 9 hours

当前状态

高度 684.4 km
速度 7.52 km/s
星下点 22.22°N, 139.44°W
发射日期 Aug 17, 2011
运行时间 14.6 years
类型 other

技术详情

分类 Payload
质量 86.00 kg
干质量 84.00 kg
总质量 86.00 kg
长度 0.60 m
直径 0.60 m
跨度 0.60 m
形状 Box
制造商 SSTLA/NSRDA
平台类型 SSTL-100
阶段状态 In Orbit
所有者/国家 NSRDA/NG

Most Searched